sat.trackr.live / text

‹ back to catalog

STARLINK-32195

NORAD 60440 · 2024-144R

PAYLOAD ACTIVE UNKNOWN

§ Identity

Operator
Country
US
Launch date
2024-08-12
Launch site
AFETR
Launch vehicle
Mass (kg)
RCS (m²)

Purposes: comms

External: N2YO · Heavens-Above · Gunter

§ Orbital elements

Epoch: 2026-09-21T16:43:11.347968Z

Period
93.85 min
Inclination
53.1614°
Eccentricity
0.0000842
Mean motion
15.34398689 rev/d
Perigee alt
462.1 km
Apogee alt
463.3 km
Semi-major
6,840.8 km
B*
-6.2603e-6
RAAN
22.0922°
Arg perigee
79.6642°
Mean anomaly
280.4455°
Rev number
11,938

§ Raw data

STARLINK-321951 60440U 24144R   26264.69665912 -.00000587  00000+0 -62603-5 0  99962 60440  53.1614  22.0922 0000842  79.6642 280.4455 15.34398689119387

JSON: /api/v1/satellites/60440 · /tle

For live sub-satellite position, see the globe view (requires WebGL).

§ Visibility from observer

Set your observer location to see the next 7 days of passes ≥ 10°. The values pass through the URL so the page stays shareable.

No JS? Fill the form by hand. The geolocation button needs JavaScript.